Year,Month,Day,Hour,Minute,Value (Times are PST for windgust in km/hr)
2016,10,06,04,21,1.60
2016,10,06,04,22,1.60
2016,10,06,08,21,1.60
2016,10,06,08,57,1.60
2016,10,06,08,59,1.60
2016,10,06,09,00,1.60
2016,10,06,09,01,8.10
2016,10,06,09,02,4.80
2016,10,06,09,03,8.10
2016,10,06,09,04,9.60
2016,10,06,09,05,9.60
2016,10,06,09,06,9.60
2016,10,06,09,07,9.60
2016,10,06,09,08,12.90
2016,10,06,09,09,14.50
2016,10,06,09,10,6.40
2016,10,06,09,11,4.80
2016,10,06,09,12,4.80
2016,10,06,09,13,8.10
2016,10,06,09,14,9.60
2016,10,06,09,15,6.40
2016,10,06,09,16,8.10
2016,10,06,09,17,6.40
2016,10,06,09,18,3.20
2016,10,06,09,19,4.80
2016,10,06,09,20,4.80
2016,10,06,09,21,6.40
2016,10,06,09,22,6.40
2016,10,06,09,23,9.60
2016,10,06,09,24,4.80
2016,10,06,09,25,4.80
2016,10,06,09,26,6.40
2016,10,06,09,27,4.80
2016,10,06,09,28,6.40
2016,10,06,09,29,6.40
2016,10,06,09,30,8.10
2016,10,06,09,31,9.60
2016,10,06,09,32,11.30
2016,10,06,09,33,11.30
2016,10,06,09,34,11.30
2016,10,06,09,35,9.60
2016,10,06,09,36,14.50
2016,10,06,09,37,12.90
2016,10,06,09,38,8.10
2016,10,06,09,39,8.10
2016,10,06,09,40,11.30
2016,10,06,09,41,8.10
2016,10,06,09,42,11.30
2016,10,06,09,43,11.30
2016,10,06,09,44,8.10
2016,10,06,09,45,8.10
2016,10,06,09,46,8.10
2016,10,06,09,47,9.60
2016,10,06,09,48,14.50
2016,10,06,09,49,11.30
2016,10,06,09,50,16.10
2016,10,06,09,51,11.30
2016,10,06,09,52,8.10
2016,10,06,09,53,11.30
2016,10,06,09,54,9.60
2016,10,06,09,55,8.10
2016,10,06,09,56,9.60
2016,10,06,09,57,14.50
2016,10,06,09,58,19.30
2016,10,06,09,59,14.50
2016,10,06,10,00,11.30
2016,10,06,10,01,9.60
2016,10,06,10,02,14.50
2016,10,06,10,03,12.90
2016,10,06,10,04,9.60
2016,10,06,10,05,14.50
2016,10,06,10,06,16.10
2016,10,06,10,07,16.10
2016,10,06,10,08,17.70
2016,10,06,10,09,9.60
2016,10,06,10,10,19.30
2016,10,06,10,11,14.50
2016,10,06,10,12,8.10
2016,10,06,10,13,16.10
2016,10,06,10,14,11.30
2016,10,06,10,15,6.40
2016,10,06,10,16,4.80
2016,10,06,10,17,6.40
2016,10,06,10,18,8.10
2016,10,06,10,19,11.30
2016,10,06,10,20,6.40
2016,10,06,10,21,9.60
2016,10,06,10,22,9.60
2016,10,06,10,23,9.60
2016,10,06,10,24,12.90
2016,10,06,10,25,11.30
2016,10,06,10,26,9.60
2016,10,06,10,27,9.60
2016,10,06,10,28,11.30
2016,10,06,10,29,14.50
2016,10,06,10,30,14.50
2016,10,06,10,31,9.60
2016,10,06,10,32,14.50
2016,10,06,10,33,11.30
2016,10,06,10,34,9.60
2016,10,06,10,35,9.60
2016,10,06,10,36,14.50
2016,10,06,10,37,14.50
2016,10,06,10,38,9.60
2016,10,06,10,39,16.10
2016,10,06,10,40,9.60
2016,10,06,10,41,14.50
2016,10,06,10,42,17.70
2016,10,06,10,43,12.90
2016,10,06,10,44,11.30
2016,10,06,10,45,9.60
2016,10,06,10,46,8.10
2016,10,06,10,47,12.90
2016,10,06,10,48,9.60
2016,10,06,10,49,11.30
2016,10,06,10,50,11.30
2016,10,06,10,51,11.30
2016,10,06,10,52,11.30
2016,10,06,10,53,11.30
2016,10,06,10,54,9.60
2016,10,06,10,55,8.10
2016,10,06,10,56,9.60
2016,10,06,10,57,12.90
2016,10,06,10,58,12.90
2016,10,06,10,59,12.90
2016,10,06,11,00,9.60
2016,10,06,11,01,9.60
2016,10,06,11,02,9.60
2016,10,06,11,03,9.60
2016,10,06,11,04,9.60
2016,10,06,11,05,9.60
2016,10,06,11,06,8.10
2016,10,06,11,07,8.10
2016,10,06,11,08,8.10
2016,10,06,11,09,9.60
2016,10,06,11,10,8.10
2016,10,06,11,11,9.60
2016,10,06,11,12,8.10
2016,10,06,11,13,6.40
2016,10,06,11,14,6.40
2016,10,06,11,15,8.10
2016,10,06,11,16,8.10
2016,10,06,11,17,9.60
2016,10,06,11,18,8.10
2016,10,06,11,19,8.10
2016,10,06,11,20,8.10
2016,10,06,11,21,8.10
2016,10,06,11,22,6.40
2016,10,06,11,23,6.40
2016,10,06,11,24,6.40
2016,10,06,11,25,6.40
2016,10,06,11,26,8.10
2016,10,06,11,27,9.60
2016,10,06,11,28,8.10
2016,10,06,11,29,9.60
2016,10,06,11,30,8.10
2016,10,06,11,31,8.10
2016,10,06,11,32,8.10
2016,10,06,11,33,6.40
2016,10,06,11,34,6.40
2016,10,06,11,35,8.10
2016,10,06,11,36,14.50
2016,10,06,11,37,9.60
2016,10,06,11,38,8.10
2016,10,06,11,39,6.40
2016,10,06,11,40,6.40
2016,10,06,11,41,6.40
2016,10,06,11,42,9.60
2016,10,06,11,43,8.10
2016,10,06,11,44,4.80
2016,10,06,11,45,3.20
2016,10,06,11,46,4.80
2016,10,06,11,47,6.40
2016,10,06,11,48,6.40
2016,10,06,11,49,6.40
2016,10,06,11,50,8.10
2016,10,06,11,51,6.40
2016,10,06,11,52,6.40
2016,10,06,11,53,3.20
2016,10,06,11,59,4.80
2016,10,06,12,03,1.60
2016,10,06,12,04,6.40
2016,10,06,12,05,8.10
2016,10,06,12,06,8.10
2016,10,06,12,07,8.10
2016,10,06,12,08,9.60
2016,10,06,12,09,6.40
2016,10,06,12,10,6.40
2016,10,06,12,11,4.80
2016,10,06,12,12,1.60
2016,10,06,12,14,3.20
2016,10,06,12,15,4.80
2016,10,06,12,16,4.80
2016,10,06,12,17,6.40
2016,10,06,12,18,6.40
2016,10,06,12,19,8.10
2016,10,06,12,20,8.10
2016,10,06,12,21,6.40
2016,10,06,12,22,1.60
2016,10,06,12,23,6.40
2016,10,06,12,24,4.80
2016,10,06,12,25,4.80
2016,10,06,12,26,8.10
2016,10,06,12,27,9.60
2016,10,06,12,28,9.60
2016,10,06,12,29,8.10
2016,10,06,12,30,9.60
2016,10,06,12,31,9.60
2016,10,06,12,32,8.10
2016,10,06,12,33,9.60
2016,10,06,12,34,11.30
2016,10,06,12,35,12.90
2016,10,06,12,36,9.60
2016,10,06,12,37,11.30
2016,10,06,12,38,9.60
2016,10,06,12,39,9.60
2016,10,06,12,40,9.60
2016,10,06,12,41,9.60
2016,10,06,12,42,8.10
2016,10,06,12,43,8.10
2016,10,06,12,44,9.60
2016,10,06,12,45,8.10
2016,10,06,12,46,14.50
2016,10,06,12,47,9.60
2016,10,06,12,48,9.60
2016,10,06,12,49,12.90
2016,10,06,12,50,11.30
2016,10,06,12,51,9.60
2016,10,06,12,52,11.30
2016,10,06,12,53,8.10
2016,10,06,12,54,9.60
2016,10,06,12,55,9.60
2016,10,06,12,56,16.10
2016,10,06,12,57,16.10
2016,10,06,12,58,16.10
2016,10,06,12,59,16.10
2016,10,06,13,00,16.10
2016,10,06,13,01,17.70
2016,10,06,13,02,19.30
2016,10,06,13,03,17.70
2016,10,06,13,04,14.50
2016,10,06,13,05,19.30
2016,10,06,13,06,17.70
2016,10,06,13,07,16.10
2016,10,06,13,08,16.10
2016,10,06,13,09,16.10
2016,10,06,13,10,14.50
2016,10,06,13,11,11.30
2016,10,06,13,12,16.10
2016,10,06,13,13,16.10
2016,10,06,13,14,14.50
2016,10,06,13,15,11.30
2016,10,06,13,16,14.50
2016,10,06,13,17,9.60
2016,10,06,13,18,11.30
2016,10,06,13,19,8.10
2016,10,06,13,20,3.20
2016,10,06,13,21,9.60
2016,10,06,13,22,6.40
2016,10,06,13,23,6.40
2016,10,06,13,24,11.30
2016,10,06,13,25,11.30
2016,10,06,13,26,11.30
2016,10,06,13,27,11.30
2016,10,06,13,28,17.70
2016,10,06,13,29,12.90
2016,10,06,13,30,16.10
2016,10,06,13,31,16.10
2016,10,06,13,32,12.90
2016,10,06,13,33,14.50
2016,10,06,13,34,11.30
2016,10,06,13,35,14.50
2016,10,06,13,36,16.10
2016,10,06,13,37,17.70
2016,10,06,13,38,9.60
2016,10,06,13,39,17.70
2016,10,06,13,40,17.70
2016,10,06,13,41,16.10
2016,10,06,13,42,14.50
2016,10,06,13,43,11.30
2016,10,06,13,44,14.50
2016,10,06,13,45,11.30
2016,10,06,13,46,16.10
2016,10,06,13,47,12.90
2016,10,06,13,48,14.50
2016,10,06,13,49,9.60
2016,10,06,13,50,11.30
2016,10,06,13,51,9.60
2016,10,06,13,52,9.60
2016,10,06,13,53,9.60
2016,10,06,13,54,11.30
2016,10,06,13,55,14.50
2016,10,06,13,56,11.30
2016,10,06,13,57,6.40
2016,10,06,13,58,8.10
2016,10,06,13,59,8.10
2016,10,06,14,00,11.30
2016,10,06,14,01,9.60
2016,10,06,14,02,11.30
2016,10,06,14,03,8.10
2016,10,06,14,04,8.10
2016,10,06,14,05,6.40
2016,10,06,14,06,11.30
2016,10,06,14,07,11.30
2016,10,06,14,08,11.30
2016,10,06,14,09,8.10
2016,10,06,14,10,8.10
2016,10,06,14,11,9.60
2016,10,06,14,12,6.40
2016,10,06,14,13,9.60
2016,10,06,14,14,11.30
2016,10,06,14,15,14.50
2016,10,06,14,16,14.50
2016,10,06,14,17,11.30
2016,10,06,14,18,16.10
2016,10,06,14,19,11.30
2016,10,06,14,20,8.10
2016,10,06,14,21,9.60
2016,10,06,14,22,8.10
2016,10,06,14,23,4.80
2016,10,06,14,24,3.20
2016,10,06,14,25,6.40
2016,10,06,14,26,11.30
2016,10,06,14,27,9.60
2016,10,06,14,28,9.60
2016,10,06,14,29,8.10
2016,10,06,14,30,6.40
2016,10,06,14,31,8.10
2016,10,06,14,32,6.40
2016,10,06,14,33,4.80
2016,10,06,14,35,1.60
2016,10,06,14,36,1.60
2016,10,06,14,37,1.60
2016,10,06,14,38,3.20
2016,10,06,14,40,1.60
2016,10,06,14,48,3.20
2016,10,06,14,49,6.40
2016,10,06,14,50,6.40
2016,10,06,14,51,4.80
2016,10,06,14,52,6.40
2016,10,06,14,53,3.20
2016,10,06,14,54,4.80
2016,10,06,14,55,1.60
2016,10,06,14,56,1.60
2016,10,06,14,57,6.40
2016,10,06,14,58,4.80
2016,10,06,14,59,1.60
2016,10,06,15,00,4.80
2016,10,06,15,01,4.80
2016,10,06,15,02,4.80
2016,10,06,15,03,4.80
2016,10,06,15,05,1.60
2016,10,06,15,06,8.10
2016,10,06,15,07,4.80
2016,10,06,15,08,6.40
2016,10,06,15,09,4.80
2016,10,06,15,10,6.40
2016,10,06,15,11,3.20
2016,10,06,15,12,1.60
2016,10,06,15,13,4.80
2016,10,06,15,14,3.20
2016,10,06,15,15,6.40
2016,10,06,15,16,3.20
2016,10,06,15,18,1.60
2016,10,06,15,25,1.60
2016,10,06,15,35,3.20
2016,10,06,15,36,1.60
2016,10,06,15,43,1.60
2016,10,06,15,59,1.60
2016,10,06,16,05,1.60
2016,10,06,16,06,3.20
2016,10,06,16,09,1.60
2016,10,06,16,10,3.20
2016,10,06,16,11,3.20
2016,10,06,16,12,1.60
2016,10,06,16,18,1.60
2016,10,06,16,22,1.60
2016,10,06,16,25,1.60
2016,10,06,16,27,1.60
2016,10,06,16,34,6.40
2016,10,06,16,35,6.40
2016,10,06,16,36,8.10
2016,10,06,16,37,8.10
2016,10,06,16,38,6.40
2016,10,06,16,39,4.80
2016,10,06,16,42,11.30
2016,10,06,16,43,9.60
2016,10,06,16,44,8.10
2016,10,06,16,45,6.40
2016,10,06,16,46,6.40
2016,10,06,16,47,4.80
2016,10,06,16,48,3.20
2016,10,06,16,49,1.60
2016,10,06,16,53,1.60
2016,10,06,16,55,1.60
2016,10,06,16,58,1.60
2016,10,06,17,00,6.40
2016,10,06,17,01,6.40
2016,10,06,17,03,6.40
2016,10,06,17,04,6.40
2016,10,06,17,05,8.10
2016,10,06,17,06,4.80
2016,10,06,17,07,4.80
2016,10,06,17,08,1.60
2016,10,06,17,11,1.60
2016,10,06,17,16,1.60
2016,10,06,17,17,1.60
2016,10,06,17,21,1.60
2016,10,06,17,28,4.80
2016,10,06,17,30,6.40
2016,10,06,17,31,3.20
2016,10,06,17,32,3.20
2016,10,06,17,33,6.40
2016,10,06,17,34,6.40
2016,10,06,17,35,8.10
2016,10,06,17,36,8.10
2016,10,06,17,37,8.10
2016,10,06,17,38,9.60
2016,10,06,17,39,11.30
2016,10,06,17,40,11.30
2016,10,06,17,41,12.90
2016,10,06,17,42,14.50
2016,10,06,17,43,20.90
2016,10,06,17,44,16.10
2016,10,06,17,45,24.20
2016,10,06,17,46,20.90
2016,10,06,17,47,19.30
2016,10,06,17,48,22.50
2016,10,06,17,49,22.50
2016,10,06,17,50,14.50
2016,10,06,17,51,20.90
2016,10,06,17,52,19.30
2016,10,06,17,53,20.90
2016,10,06,17,54,27.40
2016,10,06,17,55,22.50
2016,10,06,17,56,17.70
2016,10,06,17,57,19.30
2016,10,06,17,58,22.50
2016,10,06,17,59,22.50
2016,10,06,18,00,20.90
2016,10,06,18,01,19.30
2016,10,06,18,02,11.30
2016,10,06,18,03,16.10
2016,10,06,18,04,19.30
2016,10,06,18,05,19.30
2016,10,06,18,06,22.50
2016,10,06,18,07,24.20
2016,10,06,18,08,30.60
2016,10,06,18,09,11.30
2016,10,06,18,10,11.30
2016,10,06,18,11,16.10
2016,10,06,18,12,16.10
2016,10,06,18,13,20.90
2016,10,06,18,14,19.30
2016,10,06,18,15,14.50
2016,10,06,18,16,11.30
2016,10,06,18,17,14.50
2016,10,06,18,18,16.10
2016,10,06,18,19,11.30
2016,10,06,18,20,12.90
2016,10,06,18,21,17.70
2016,10,06,18,22,20.90
2016,10,06,18,23,16.10
2016,10,06,18,24,16.10
2016,10,06,18,25,16.10
2016,10,06,18,26,16.10
2016,10,06,18,27,14.50
2016,10,06,18,28,20.90
2016,10,06,18,29,24.20
2016,10,06,18,30,17.70
2016,10,06,18,31,16.10
2016,10,06,18,32,14.50
2016,10,06,18,33,19.30
2016,10,06,18,34,17.70
2016,10,06,18,35,16.10
2016,10,06,18,36,17.70
2016,10,06,18,37,19.30
2016,10,06,18,38,20.90
2016,10,06,18,39,17.70
2016,10,06,18,40,22.50
2016,10,06,18,41,19.30
2016,10,06,18,42,22.50
2016,10,06,18,43,24.20
2016,10,06,18,44,19.30
2016,10,06,18,45,16.10
2016,10,06,18,46,17.70
2016,10,06,18,47,19.30
2016,10,06,18,48,20.90
2016,10,06,18,49,17.70
2016,10,06,18,50,17.70
2016,10,06,18,51,17.70
2016,10,06,18,52,16.10
2016,10,06,18,53,22.50
2016,10,06,18,54,17.70
2016,10,06,18,55,17.70
2016,10,06,18,56,11.30
2016,10,06,18,57,20.90
2016,10,06,18,58,29.00
2016,10,06,18,59,19.30
2016,10,06,19,00,17.70
2016,10,06,19,01,20.90
2016,10,06,19,02,19.30
2016,10,06,19,03,27.40
2016,10,06,19,04,20.90
2016,10,06,19,05,17.70
2016,10,06,19,06,11.30
2016,10,06,19,07,20.90
2016,10,06,19,08,38.60
2016,10,06,19,09,27.40
2016,10,06,19,10,11.30
2016,10,06,19,11,9.60
2016,10,06,19,12,17.70
2016,10,06,19,13,20.90
2016,10,06,19,14,9.60
2016,10,06,19,15,20.90
2016,10,06,19,16,9.60
2016,10,06,19,17,17.70
2016,10,06,19,18,17.70
2016,10,06,19,19,11.30
2016,10,06,19,20,17.70
2016,10,06,19,21,16.10
2016,10,06,19,22,27.40
2016,10,06,19,23,33.80
2016,10,06,19,24,30.60
2016,10,06,19,25,17.70
2016,10,06,19,26,27.40
2016,10,06,19,27,22.50
2016,10,06,19,28,25.70
2016,10,06,19,29,33.80
2016,10,06,19,30,27.40
2016,10,06,19,31,24.20
2016,10,06,19,32,24.20
2016,10,06,19,33,14.50
2016,10,06,19,34,22.50
2016,10,06,19,35,24.20
2016,10,06,19,36,32.20
2016,10,06,19,37,27.40
2016,10,06,19,38,29.00
2016,10,06,19,39,22.50
2016,10,06,19,40,19.30
2016,10,06,19,41,33.80
2016,10,06,19,42,24.20
2016,10,06,19,43,33.80
2016,10,06,19,44,33.80
2016,10,06,19,45,24.20
2016,10,06,19,46,30.60
2016,10,06,19,47,35.40
2016,10,06,19,48,30.60
2016,10,06,19,49,43.50
2016,10,06,19,50,46.70
2016,10,06,19,51,32.20
2016,10,06,19,52,33.80
2016,10,06,19,53,29.00
2016,10,06,19,54,30.60
2016,10,06,19,55,30.60
2016,10,06,19,56,32.20
2016,10,06,19,57,35.40
2016,10,06,19,58,40.20
2016,10,06,19,59,43.50
2016,10,06,20,00,43.50
2016,10,06,20,01,45.10
2016,10,06,20,02,29.00
2016,10,06,20,03,19.30
2016,10,06,20,04,33.80
2016,10,06,20,05,33.80
2016,10,06,20,06,38.60
2016,10,06,20,07,30.60
2016,10,06,20,08,46.70
2016,10,06,20,09,38.60
2016,10,06,20,10,29.00
2016,10,06,20,11,37.00
2016,10,06,20,12,38.60
2016,10,06,20,13,35.40
2016,10,06,20,14,35.40
2016,10,06,20,15,35.40
2016,10,06,20,16,40.20
2016,10,06,20,17,33.80
2016,10,06,20,18,27.40
2016,10,06,20,19,29.00
2016,10,06,20,20,37.00
2016,10,06,20,21,49.90
2016,10,06,20,22,32.20
2016,10,06,20,23,32.20
2016,10,06,20,24,35.40
2016,10,06,20,25,29.00
2016,10,06,20,26,41.80
2016,10,06,20,27,37.00
2016,10,06,20,28,40.20
2016,10,06,20,29,40.20
2016,10,06,20,30,32.20
2016,10,06,20,31,43.50
2016,10,06,20,32,48.30
2016,10,06,20,33,25.70
2016,10,06,20,34,27.40
2016,10,06,20,35,33.80
2016,10,06,20,36,33.80
2016,10,06,20,37,27.40
2016,10,06,20,38,37.00
2016,10,06,20,39,37.00
2016,10,06,20,40,29.00
2016,10,06,20,41,32.20
2016,10,06,20,42,33.80
2016,10,06,20,43,37.00
2016,10,06,20,44,40.20
2016,10,06,20,45,32.20
2016,10,06,20,46,33.80
2016,10,06,20,47,40.20
2016,10,06,20,48,38.60
2016,10,06,20,49,41.80
2016,10,06,20,50,30.60
2016,10,06,20,51,35.40
2016,10,06,20,52,43.50
2016,10,06,20,53,45.10
2016,10,06,20,54,40.20
2016,10,06,20,55,49.90
2016,10,06,20,56,35.40
2016,10,06,20,57,38.60
2016,10,06,20,58,38.60
2016,10,06,20,59,41.80
2016,10,06,21,00,40.20
2016,10,06,21,01,35.40
2016,10,06,21,02,30.60
2016,10,06,21,03,33.80
2016,10,06,21,04,29.00
2016,10,06,21,05,37.00
2016,10,06,21,06,25.70
2016,10,06,21,07,33.80
2016,10,06,21,08,37.00
2016,10,06,21,09,29.00
2016,10,06,21,10,43.50
2016,10,06,21,11,43.50
2016,10,06,21,12,40.20
2016,10,06,21,13,22.50
2016,10,06,21,14,24.20
2016,10,06,21,15,40.20
2016,10,06,21,16,37.00
2016,10,06,21,17,38.60
2016,10,06,21,18,43.50
2016,10,06,21,19,29.00
2016,10,06,21,20,33.80
2016,10,06,21,21,32.20
2016,10,06,21,22,45.10
2016,10,06,21,23,40.20
2016,10,06,21,24,25.70
2016,10,06,21,25,32.20
2016,10,06,21,26,35.40
2016,10,06,21,27,29.00
2016,10,06,21,28,17.70
2016,10,06,21,29,17.70
2016,10,06,21,30,25.70
2016,10,06,21,31,38.60
2016,10,06,21,32,35.40
2016,10,06,21,33,35.40
2016,10,06,21,34,40.20
2016,10,06,21,35,33.80
2016,10,06,21,36,33.80
2016,10,06,21,37,40.20
2016,10,06,21,38,37.00
2016,10,06,21,39,32.20
2016,10,06,21,40,37.00
2016,10,06,21,41,43.50
2016,10,06,21,42,32.20
2016,10,06,21,43,37.00
2016,10,06,21,44,38.60
2016,10,06,21,45,25.70
2016,10,06,21,46,43.50
2016,10,06,21,47,51.50
2016,10,06,21,48,45.10
2016,10,06,21,49,49.90
2016,10,06,21,50,45.10
2016,10,06,21,51,41.80
2016,10,06,21,52,40.20
2016,10,06,21,53,45.10
2016,10,06,21,54,37.00
2016,10,06,21,55,30.60
2016,10,06,21,56,33.80
2016,10,06,21,57,41.80
2016,10,06,21,58,51.50
2016,10,06,21,59,37.00
2016,10,06,22,00,43.50
2016,10,06,22,01,35.40
2016,10,06,22,02,27.40
2016,10,06,22,03,46.70
2016,10,06,22,04,41.80
2016,10,06,22,05,27.40
2016,10,06,22,06,30.60
2016,10,06,22,07,35.40
2016,10,06,22,08,35.40
2016,10,06,22,09,40.20
2016,10,06,22,10,35.40
2016,10,06,22,11,38.60
2016,10,06,22,12,43.50
2016,10,06,22,13,41.80
2016,10,06,22,14,41.80
2016,10,06,22,15,45.10
2016,10,06,22,16,43.50
2016,10,06,22,17,35.40
2016,10,06,22,18,37.00
2016,10,06,22,19,33.80
2016,10,06,22,20,33.80
2016,10,06,22,21,48.30
2016,10,06,22,22,38.60
2016,10,06,22,23,33.80
2016,10,06,22,24,38.60
2016,10,06,22,25,37.00
2016,10,06,22,26,38.60
2016,10,06,22,27,45.10
2016,10,06,22,28,45.10
2016,10,06,22,29,53.10
2016,10,06,22,30,43.50
2016,10,06,22,31,38.60
2016,10,06,22,32,38.60
2016,10,06,22,33,38.60
2016,10,06,22,34,38.60
2016,10,06,22,35,43.50
2016,10,06,22,36,32.20
2016,10,06,22,37,48.30
2016,10,06,22,38,41.80
2016,10,06,22,39,30.60
2016,10,06,22,40,48.30
2016,10,06,22,41,48.30
2016,10,06,22,42,53.10
2016,10,06,22,43,35.40
2016,10,06,22,44,40.20
2016,10,06,22,45,38.60
2016,10,06,22,46,51.50
2016,10,06,22,47,41.80
2016,10,06,22,48,48.30
2016,10,06,22,49,53.10
2016,10,06,22,50,45.10
2016,10,06,22,51,43.50
2016,10,06,22,52,30.60
2016,10,06,22,53,33.80
2016,10,06,22,54,41.80
2016,10,06,22,55,41.80
2016,10,06,22,56,30.60
2016,10,06,22,57,43.50
2016,10,06,22,58,35.40
2016,10,06,22,59,32.20
2016,10,06,23,00,32.20
2016,10,06,23,01,38.60
2016,10,06,23,02,32.20
2016,10,06,23,03,19.30
2016,10,06,23,04,27.40
2016,10,06,23,05,29.00
2016,10,06,23,06,25.70
2016,10,06,23,07,25.70
2016,10,06,23,08,32.20
2016,10,06,23,09,20.90
2016,10,06,23,10,22.50
2016,10,06,23,11,29.00
2016,10,06,23,12,29.00
2016,10,06,23,13,37.00
2016,10,06,23,14,24.20
2016,10,06,23,15,29.00
2016,10,06,23,16,37.00
2016,10,06,23,17,35.40
2016,10,06,23,18,32.20
2016,10,06,23,19,41.80
2016,10,06,23,20,37.00
2016,10,06,23,21,27.40
2016,10,06,23,22,30.60
2016,10,06,23,23,37.00
2016,10,06,23,24,35.40
2016,10,06,23,25,51.50
2016,10,06,23,26,33.80
2016,10,06,23,27,46.70
2016,10,06,23,28,33.80
2016,10,06,23,29,49.90
2016,10,06,23,30,53.10
2016,10,06,23,31,45.10
2016,10,06,23,32,37.00
2016,10,06,23,33,43.50
2016,10,06,23,34,57.90
2016,10,06,23,35,45.10
2016,10,06,23,36,53.10
2016,10,06,23,37,56.30
2016,10,06,23,38,53.10
2016,10,06,23,39,38.60
2016,10,06,23,40,51.50
2016,10,06,23,41,45.10
2016,10,06,23,42,32.20
2016,10,06,23,43,38.60
2016,10,06,23,44,37.00
2016,10,06,23,45,40.20
2016,10,06,23,46,33.80
2016,10,06,23,47,38.60
2016,10,06,23,48,53.10
2016,10,06,23,49,40.20
2016,10,06,23,50,43.50
2016,10,06,23,51,53.10
2016,10,06,23,52,49.90
2016,10,06,23,53,56.30
2016,10,06,23,54,56.30
2016,10,06,23,55,43.50
2016,10,06,23,56,46.70
2016,10,06,23,57,40.20
2016,10,06,23,58,49.90
2016,10,06,23,59,38.60
